Temp
8 8 8 8 8 8 8 8 8 8 8 8 8 8 8 8 8 8 8 8 8 8 8 8 8 8 9 9 9 8 8 8 8 8 8 9 9 9 9 9 9 9 9 9 9 9 9 9 9 9 9 9 9 9 9 9 9 10 10 10 10 10 10 10 10 10 10 10 10
8 8 8 8 8 8 8 8 8 8 8 8 8 8 7 7 7 7 7 7 7 7 7 7 8 8 8 9 9 9 9 8 8 8 8 8 8 8 9 9 9 9 9 9 9 9 9 9 9 9 9 9 9 9 9 9 9 9 9 9 9 10 10 10 10 10 10 10 10
8 8 8 8 8 8 8 8 8 8 8 8 7 7 7 7 7 7 7 7 7 7 7 7 7 7 8 8 8 8 9 9 9 8 8 8 8 8 8 8 9 9 9 9 9 9 9 9 9 9 9 9 9 9 9 9 9 9 9 9 9 9 9 9 9 10 10 9 9
7 7 8 8 8 8 8 8 8 7 7 7 7 7 7 7 7 7 7 7 7 7 7 7 7 7 7 7 8 8 8 8 8 8 8 8 8 8 8 8 8 8 8 9 9 9 9 9 9 9 9 9 9 9 9 9 8 8 8 8 8 8 9 9 9 9 9 9 9
7 7 7 7 7 7 7 7 7 7 7 7 7 7 7 7 7 7 7 7 7 7 7 7 7 7 7 7 7 7 8 8 8 8 8 8 8 8 8 8 8 8 8 8 8 8 8 9 9 9 9 8 8 8 8 8 8 8 8 8 8 8 8 8 8 8 8 9 9
7 7 7 7 7 7 7 7 7 7 7 7 7 7 7 6 7 7 7 7 7 7 7 7 7 7 7 7 7 7 7 7 7 7 8 8 8 8 8 8 8 8 8 8 8 8 8 8 8 8 8 8 8 8 8 8 8 8 8 8 8 8 8 8 8 8 8 8 8
6 6 6 6 6 7 7 7 7 7 7 7 7 7 7 7 7 7 7 7 7 7 7 7 7 7 7 7 7 7 7 7 7 7 7 7 7 7 8 8 8 8 8 8 8 8 8 8 8 8 8 8 7 7 8 8 8 8 8 8 8 8 7 7 7 7 8 8 8
6 6 6 6 6 6 7 7 7 7 7 7 7 7 7 7 7 7 7 7 7 7 7 7 7 7 7 7 7 7 7 7 7 7 7 7 7 7 7 7 8 8 8 8 8 8 8 8 8 8 7 7 7 7 7 7 7 7 7 7 7 7 7 7 7 7 7 7 7
6 6 6 6 6 6 6 7 7 7 7 7 7 7 7 7 7 7 7 7 7 7 7 7 7 7 7 7 7 7 7 7 7 7 7 7 7 7 7 7 7 7 7 7 7 7 7 7 7 7 7 7 7 7 7 7 7 7 6 6 6 6 6 6 7 7 7 7 7
6 6 6 6 6 6 6 7 7 7 7 7 7 7 7 7 7 7 7 7 7 7 7 7 7 7 7 7 7 7 7 7 7 7 7 7 6 6 6 6 7 7 7 7 7 7 7 7 7 7 7 7 7 7 7 6 6 6 6 6 5 5 5 6 6 6 6 6 6
6 6 6 6 6 6 6 6 6 6 6 6 6 6 6 6 6 6 6 6 6 6 6 6 6 6 7 7 7 7 6 6 6 6 6 6 6 6 6 6 6 6 6 6 7 7 7 7 7 7 7 7 7 7 7 7 6 6 6 6 5 5 5 5 5 5 6 6 6
5 5 5 5 6 6 6 6 6 6 6 6 6 6 6 6 6 6 6 6 6 6 6 6 6 6 6 6 6 7 7 6 6 6 6 6 6 6 6 6 6 6 6 6 6 6 6 6 7 7 7 7 7 7 7 7 7 6 6 6 6 5 5 5 5 5 5 5 6
5 5 5 5 5 6 6 6 6 6 6 6 6 6 6 6 6 6 5 5 5 5 5 5 5 5 6 6 6 6 6 6 6 6 6 6 6 6 6 6 6 6 6 6 6 6 6 6 6 6 7 7 7 7 7 7 7 7 6 6 6 6 6 5 5 5 5 5 5
4 5 5 5 5 5 5 5 5 6 6 6 6 5 5 5 5 5 5 5 5 5 5 5 5 5 5 5 6 6 6 6 6 6 6 6 6 6 6 6 6 6 6 6 6 6 6 6 6 6 6 6 6 6 6 7 7 6 6 6 6 6 6 6 6 5 5 5 5
4 4 4 4 5 5 5 5 5 5 5 5 5 5 5 6 6 6 5 5 5 5 5 5 5 5 5 5 5 5 5 5 6 6 6 6 6 6 6 6 6 6 6 6 6 6 6 6 6 6 6 6 6 6 6 6 6 6 6 6 6 6 6 6 6 6 5 5 5
3 4 4 4 4 4 4 5 5 5 5 5 5 5 5 5 6 6 6 5 5 5 5 5 5 5 5 5 5 5 5 5 5 5 5 5 6 6 6 6 6 6 6 6 6 6 5 5 5 5 5 5 5 5 5 5 5 5 6 6 6 6 6 6 6 6 6 6 5
3 3 3 3 4 4 4 4 4 4 4 4 5 5 5 5 6 6 6 6 6 6 5 5 5 5 5 5 5 5 5 5 5 5 5 5 5 5 5 5 5 5 5 6 6 6 6 5 5 5 5 5 5 5 5 5 5 5 5 5 6 6 6 6 6 6 6 6 6
3 3 3 3 3 3 3 4 4 4 4 4 4 4 4 5 5 5 6 6 6 6 6 6 6 6 5 5 5 5 5 5 5 5 5 5 5 5 5 5 5 5 5 5 5 5 5 5 5 5 5 5 5 5 4 4 4 5 5 5 5 6 6 6 6 6 5 5 6
3 3 3 3 3 3 3 3 3 4 4 4 4 4 4 4 4 5 5 6 6 6 6 6 6 6 6 6 6 6 5 5 5 5 5 5 5 5 5 5 5 5 5 5 5 5 5 5 5 5 5 5 5 4 4 4 4 4 4 5 5 5 5 6 6 5 5 5 6
3 3 3 3 3 3 3 3 3 3 3 3 4 4 4 4 4 4 5 5 5 6 6 6 6 6 6 6 5 6 6 6 5 5 5 5 5 5 5 5 5 5 5 5 5 5 5 5 5 5 5 5 5 5 4 4 4 4 4 4 4 4 5 5 5 5 5 5 5
2 2 2 2 3 3 3 3 3 3 3 3 3 3 3 4 4 4 4 4 5 5 5 6 6 6 6 5 5 5 5 6 6 6 6 5 5 5 5 5 5 5 5 5 5 5 5 5 5 5 5 5 5 5 5 4 4 4 4 4 4 4 4 4 4 4 5 5 5
2 2 2 2 2 2 2 3 3 3 3 3 3 3 3 3 4 4 4 4 4 4 5 5 6 6 6 5 5 5 5 5 5 5 5 6 6 6 6 5 5 5 5 5 5 5 5 5 5 5 5 5 5 5 5 5 4 4 4 4 4 4 4 4 4 4 4 4 4
2 2 2 2 2 2 2 2 2 3 3 3 3 3 3 3 3 3 4 4 4 4 4 5 5 6 6 6 5 5 5 5 5 5 5 5 5 6 6 6 6 6 5 5 4 4 4 4 5 5 5 5 5 5 5 5 4 4 4 4 4 4 4 4 4 4 4 4 4
2 2 2 2 2 2 2 2 2 2 2 3 3 3 3 3 3 3 3 3 4 4 4 4 5 5 6 6 6 5 5 5 5 5 5 5 5 5 5 5 5 6 6 6 5 5 4 4 4 4 5 5 5 5 4 4 4 4 4 4 4 4 4 4 4 4 4 4 4
2 2 2 2 2 2 2 2 2 2 2 2 2 2 3 3 3 3 3 3 3 4 4 4 4 5 5 6 6 6 5 5 5 5 5 5 5 5 5 5 5 5 5 6 6 5 5 5 5 5 5 5 5 5 5 4 4 4 4 4 4 4 4 4 4 4 4 4 4
2 2 2 2 2 2 2 2 2 2 2 2 2 2 2 2 3 3 3 3 3 3 4 4 4 4 5 5 5 5 5 5 5 5 5 5 5 5 5 5 5 5 5 5 5 5 5 5 5 5 5 5 5 5 5 5 4 4 4 4 4 4 4 4 4 4 4 4 4
2 2 2 2 2 2 2 2 2 2 2 2 2 2 2 2 2 2 3 3 3 3 3 4 4 4 4 5 5 5 5 5 5 5 5 5 5 5 5 5 5 5 5 5 5 5 5 5 5 5 5 5 5 5 5 5 5 5 4 4 4 4 4 4 4 4 4 4 4
2 2 2 2 2 2 2 2 2 2 2 2 2 2 2 2 2 2 2 3 3 3 3 4 4 4 4 4 5 5 5 5 5 5 5 5 5 5 5 5 5 5 5 5 5 5 5 5 5 5 5 5 5 5 5 5 5 5 5 5 4 4 4 4 4 4 4 4 4
2 2 2 2 2 2 2 2 2 2 2 2 2 2 2 2 2 2 2 2 3 3 3 3 4 4 4 4 4 5 5 5 5 5 5 5 5 5 5 5 5 5 5 5 5 5 5 5 5 5 5 5 5 5 4 4 4 4 4 4 4 4 4 4 4 4 4 4 4
2 2 2 2 2 2 2 2 2 2 2 2 2 2 2 2 2 2 2 2 2 2 3 3 3 3 4 4 4 4 5 5 5 5 5 5 5 5 5 5 5 5 5 5 5 5 5 5 5 5 5 5 5 5 5 4 4 4 4 4 4 4 4 4 4 4 4 4 4
2 2 2 2 2 2 2 2 2 2 2 2 2 2 2 2 2 2 2 2 2 2 2 3 3 3 3 4 4 4 4 4 5 5 5 5 5 5 5 5 5 5 5 5 5 5 5 5 5 5 5 5 5 5 5 4 4 4 4 4 4 4 4 4 4 4 4 4 4
2 2 2 2 2 2 2 2 2 1 1 1 1 1 1 1 1 2 2 2 2 2 2 2 3 3 3 3 4 4 4 4 4 5 5 5 5 5 5 5 5 5 5 5 5 5 5 5 5 5 5 5 5 5 5 5 4 4 4 4 4 4 4 4 4 4 4 4 4
2 2 2 2 2 2 2 1 1 1 1 1 1 1 1 1 1 1 1 2 2 2 2 2 2 2 3 3 3 3 4 4 4 4 5 5 5 5 5 5 5 5 5 5 5 5 5 5 5 5 5 5 5 5 5 4 4 4 4 4 4 4 4 4 4 4 4 4 4
1 1 1 1 1 1 1 1 1 1 1 1 1 1 1 1 1 1 1 1 1 2 2 2 2 2 2 3 3 3 3 4 4 4 4 5 5 5 5 5 5 5 5 5 5 5 5 5 5 5 5 5 5 5 4 4 4 4 4 4 4 4 3 3 3 4 4 4 4
1 1 1 1 1 1 1 1 1 1 1 1 1 1 1 1 1 1 1 1 1 1 2 2 2 2 2 2 3 3 3 3 4 4 4 4 4 4 5 5 5 5 5 5 5 5 5 5 5 5 5 5 5 5 4 4 4 4 4 4 4 3 3 3 3 3 4 4 4
1 1 1 1 1 1 1 1 1 1 1 1 1 1 1 1 1 1 1 1 1 1 1 1 2 2 2 2 2 2 3 3 3 3 4 4 4 4 4 4 4 4 5 5 5 5 5 5 5 5 5 5 5 5 5 4 4 4 4 4 3 3 3 3 3 3 4 4 4
1 1 1 1 1 1 1 1 1 1 1 0 0 0 1 1 1 1 1 1 1 1 1 1 1 2 2 2 2 2 2 3 3 3 3 3 4 4 4 4 4 4 4 4 4 4 5 5 5 5 5 5 5 5 5 4 4 4 4 4 3 3 3 3 3 3 3 4 4
1 1 1 1 1 1 1 1 0 0 0 0 0 0 0 0 0 0 0 1 1 1 1 1 1 1 1 2 2 2 2 2 3 3 3 3 3 3 3 3 3 4 4 4 4 4 4 4 4 5 5 5 5 5 5 4 4 4 4 4 4 3 3 3 3 3 3 4 4
1 1 1 1 1 1 0 0 0 0 0 0 0 0 0 0 0 0 0 0 1 1 1 1 1 1 1 1 2 2 2 2 2 2 3 3 3 3 3 3 3 3 3 3 3 3 4 4 4 4 4 4 5 5 5 4 4 4 4 4 4 4 4 3 3 3 3 4 4
1 1 1 1 0 0 0 0 0 0 0 0 0 0 0 0 0 0 0 0 0 0 1 1 1 1 1 1 1 2 2 2 2 2 2 2 2 2 2 2 2 3 3 3 3 3 3 3 3 4 4 4 4 4 4 4 4 4 4 4 4 4 4 4 4 4 4 4 4
1 1 1 0 0 0 0 0 0 0 0 0 0 0 0 0 0 0 0 0 0 0 0 1 1 1 1 1 1 1 1 2 2 2 2 2 2 2 2 2 2 2 2 2 2 2 3 3 3 3 3 4 4 4 4 4 4 4 4 4 4 4 4 4 4 4 4 4 4
Height
763 763 762 762 762 761 761 760 760 759 758 757 757 756 756 755 755 754 754 753 753 752 751 751 750 750 749 748 748 747 747 746 746 746 746 746 746 746 745 745 744 744 744 744 745 746 746 747 748 748 748 748 748 749 749 749 749 749 749 749 749 750 750 751 752 752 753 753 754
764 763 763 763 762 762 761 761 761 760 759 758 758 757 756 756 755 754 754 753 753 752 752 751 751 750 749 749 748 747 747 746 746 746 746 746 746 745 745 744 744 744 744 744 745 745 746 747 747 748 748 748 748 749 749 749 749 749 749 749 749 750 750 751 751 752 752 753 753
765 764 763 763 762 762 762 761 761 761 760 759 759 758 757 756 756 755 754 754 753 753 752 752 751 751 750 749 748 748 747 747 746 746 746 746 745 745 745 744 744 744 744 744 745 745 746 746 746 747 747 747 748 748 748 748 748 748 749 749 749 749 750 751 751 752 752 753 754
765 765 764 763 763 762 762 761 761 761 760 760 759 759 758 757 757 756 755 755 754 753 753 753 752 751 751 750 749 748 748 747 747 746 746 746 746 745 745 744 744 744 744 744 744 745 745 745 746 746 747 747 747 747 747 747 747 748 748 748 748 749 749 750 751 751 752 753 754
766 765 764 764 763 763 762 762 761 761 760 760 759 759 759 758 757 757 756 756 755 754 754 753 753 752 751 751 750 749 748 748 747 747 746 746 746 745 745 745 745 745 745 745 745 744 744 744 745 746 746 746 746 746 746 746 746 747 747 747 748 748 749 750 751 751 752 753 754
766 766 765 764 764 763 762 762 761 761 760 760 759 759 758 758 758 757 757 756 756 755 754 754 753 752 751 751 750 750 749 748 748 747 747 746 746 746 746 745 745 745 745 745 745 744 744 744 744 745 746 746 746 746 745 746 746 746 747 747 748 748 749 750 751 751 752 753 754
767 766 765 765 764 763 762 762 761 761 760 760 759 759 758 758 757 757 757 756 756 755 755 754 753 752 751 751 751 750 749 749 748 748 747 747 746 746 746 746 745 745 745 745 745 744 744 744 744 744 745 745 746 746 745 745 746 746 746 747 747 748 749 749 750 751 752 753 754
768 767 766 765 764 763 762 762 761 761 760 760 759 759 758 758 757 757 756 756 756 755 755 754 753 752 752 751 751 750 750 749 749 748 748 747 747 746 746 746 746 745 745 745 745 744 744 744 744 744 745 745 745 745 745 745 746 746 746 747 747 748 749 749 750 751 752 753 754
768 767 766 765 764 764 763 762 762 761 761 760 760 759 758 758 757 757 756 756 756 755 755 754 753 753 752 751 751 750 750 749 749 748 748 747 747 747 746 746 746 746 745 745 745 744 744 744 744 744 745 745 745 745 745 745 746 746 746 747 748 748 749 749 750 751 751 752 754
768 767 766 766 765 764 763 763 762 761 761 760 760 759 759 758 757 757 756 756 755 755 755 754 754 753 753 752 751 751 750 750 749 749 748 748 747 747 747 746 746 746 745 745 745 745 744 744 744 744 745 745 745 745 745 745 746 746 747 748 748 749 749 749 750 750 751 752 753
769 768 767 766 766 765 764 763 762 762 761 761 760 759 759 758 757 757 756 756 755 755 754 754 754 753 753 752 752 751 751 750 749 749 749 748 748 747 747 746 746 746 745 745 745 745 744 744 744 744 744 745 745 745 745 745 746 746 747 748 748 749 749 749 750 750 750 751 752
770 769 768 767 766 765 764 763 762 762 761 761 760 759 759 758 757 757 756 755 755 754 754 754 753 753 753 752 752 752 751 751 750 749 749 749 748 748 747 747 746 746 745 745 745 744 744 744 744 744 744 744 744 744 745 745 746 746 747 747 748 748 748 749 749 749 750 751 751
771 769 768 767 766 765 764 763 762 762 761 760 760 759 759 758 757 757 756 755 755 754 753 753 753 753 752 752 752 751 751 751 751 750 750 749 749 748 748 747 747 746 746 745 745 744 744 744 743 743 743 743 743 744 744 745 745 746 746 747 747 747 747 748 748 749 749 750 751
771 770 769 768 767 766 765 764 763 762 761 760 760 759 758 758 757 756 756 755 755 754 753 752 752 752 752 752 751 751 751 751 751 750 750 750 749 749 748 748 747 747 746 745 745 744 744 743 743 743 742 742 742 743 743 744 744 745 745 746 746 746 746 747 747 748 748 749 749
771 771 769 768 767 766 765 764 763 762 762 761 760 759 758 757 757 756 756 755 754 754 753 752 752 751 751 751 751 751 751 750 750 750 750 749 749 749 748 748 748 747 746 746 745 744 744 743 743 742 742 742 742 742 742 743 743 744 744 744 745 745 745 746 746 747 747 748 748
772 771 770 769 767 766 766 765 764 763 762 761 761 760 758 757 756 756 755 755 754 753 753 752 751 751 751 750 750 750 750 750 750 749 749 749 749 748 748 748 748 747 747 746 746 745 744 743 743 742 742 742 741 741 742 742 742 743 743 743 743 743 744 744 745 746 746 747 747
772 771 770 769 768 767 766 765 764 764 763 762 761 760 759 758 757 756 755 754 754 753 752 752 751 751 750 750 750 749 749 749 749 749 749 748 748 748 748 747 747 747 746 746 746 745 744 743 743 742 742 742 741 741 741 741 741 741 742 742 742 742 742 743 744 745 745 746 746
772 771 770 769 768 767 766 766 765 764 763 762 761 761 760 758 757 756 755 754 753 753 752 751 751 750 750 750 749 749 749 748 748 748 748 747 747 747 747 747 746 746 746 746 745 745 745 744 743 743 742 742 742 741 741 741 741 741 741 741 741 741 741 742 742 743 744 744 745
772 771 770 769 768 767 766 766 765 764 763 762 761 761 760 759 758 756 755 754 753 752 752 751 750 750 749 749 749 749 748 748 747 747 747 747 746 746 746 746 746 746 745 745 745 744 744 744 744 743 743 742 742 742 741 741 741 740 740 740 740 740 740 740 741 741 742 742 743
772 771 770 769 768 767 767 766 765 764 763 762 762 761 760 759 758 757 756 754 754 753 751 751 750 749 749 748 748 748 748 748 747 747 746 746 746 745 745 745 745 745 744 744 744 744 743 743 743 743 743 742 742 741 741 741 741 740 740 739 739 739 739 739 740 740 741 741 741
772 771 771 770 769 768 767 766 765 764 763 762 762 761 760 759 758 757 756 755 754 753 751 750 749 748 748 747 747 747 747 747 747 746 746 745 745 745 744 744 744 744 743 743 743 743 743 743 742 742 742 742 741 741 741 741 740 740 739 739 738 738 738 738 739 739 739 739 740
772 771 770 769 768 768 767 766 765 764 763 762 761 761 760 759 758 757 756 755 754 753 752 751 749 748 747 746 746 746 746 746 746 746 746 745 744 744 743 743 743 743 742 742 742 742 742 742 741 741 741 741 741 741 740 740 740 739 739 738 738 738 737 738 738 738 738 738 738
771 770 769 769 768 767 766 766 765 764 763 762 761 760 760 759 758 757 756 755 754 753 752 751 749 748 746 746 746 746 745 745 745 745 745 744 744 743 743 742 742 741 741 741 741 741 741 740 740 740 740 740 740 740 739 739 739 739 738 738 738 737 737 737 737 737 737 737 737
770 769 768 768 767 766 766 765 764 763 762 761 761 760 759 758 757 756 756 755 754 753 752 751 749 747 746 745 745 745 744 744 744 744 744 743 743 742 742 741 741 741 740 740 740 739 739 739 739 739 739 739 739 738 738 738 738 738 738 737 737 737 736 736 736 736 735 735 735
770 769 768 767 766 765 765 764 763 762 761 761 760 759 758 757 756 756 755 754 753 752 751 750 749 747 746 745 744 744 744 743 743 743 743 742 742 741 741 741 740 739 739 738 738 738 738 738 738 738 737 737 737 737 737 737 737 737 736 736 736 736 736 735 735 735 734 734 734
769 768 767 766 766 765 764 763 762 761 761 760 759 758 757 756 756 755 754 753 752 751 751 750 748 747 746 745 744 743 743 742 742 742 742 741 741 741 740 740 739 738 738 737 737 737 737 736 736 736 736 736 736 736 736 736 736 736 735 735 735 735 735 734 734 734 733 733 732
769 768 767 766 765 764 763 763 762 761 760 759 758 757 756 756 755 754 753 752 751 751 750 749 748 747 746 744 743 742 741 741 741 741 741 741 741 740 739 739 738 738 737 736 736 736 736 735 735 735 735 735 735 735 735 734 734 734 734 734 734 733 733 733 733 733 732 732 732
769 768 767 766 765 764 763 762 761 761 760 759 758 757 756 755 754 753 752 751 751 750 749 748 747 746 745 744 743 741 741 740 740 740 740 740 739 739 739 738 737 737 736 736 736 735 735 734 734 734 734 733 733 733 733 733 733 733 733 733 732 732 732 732 731 731 731 731 731
769 768 767 766 765 764 763 762 761 760 759 758 757 756 755 754 753 752 751 751 750 749 748 747 746 745 744 743 742 741 740 739 739 739 739 738 738 738 737 737 736 736 736 735 735 734 734 733 733 732 732 732 732 731 731 731 731 731 731 731 731 731 731 730 730 730 730 730 730
769 768 767 766 764 763 762 761 761 760 759 758 756 756 755 754 753 752 751 750 749 748 747 746 746 745 744 743 742 741 740 739 738 738 737 737 737 736 736 736 736 735 735 734 734 733 733 732 732 731 731 731 731 730 730 730 730 730 729 729 729 729 729 729 729 729 729 729 729
769 767 766 765 764 763 762 761 760 759 758 757 756 755 754 753 752 751 750 749 748 747 746 746 745 744 743 742 741 740 739 738 737 737 736 736 736 735 735 734 734 734 733 733 733 732 732 731 731 730 730 730 729 729 728 728 728 728 727 727 727 727 727 727 727 727 727 727 727
768 767 766 765 763 762 761 760 759 758 757 756 755 754 753 752 751 750 749 749 748 746 746 745 744 743 742 741 741 740 738 737 736 736 735 735 734 734 733 733 732 732 732 731 731 731 731 730 730 729 729 728 728 727 727 726 726 726 726 725 725 725 725 725 725 726 726 726 726
768 767 766 764 763 761 760 759 758 757 756 755 754 753 752 751 750 749 748 748 747 746 745 744 743 742 741 741 740 739 738 737 736 735 734 734 733 733 732 731 731 731 730 730 730 729 729 729 728 728 727 727 727 726 726 725 725 724 724 723 723 723 723 723 723 723 724 724 724
767 766 765 764 762 761 760 758 757 756 755 754 753 752 751 750 749 748 747 746 746 745 744 743 742 741 741 740 739 738 737 736 735 734 733 733 732 731 731 730 730 729 729 729 728 728 728 727 727 726 726 726 725 725 724 724 723 723 722 722 721 721 721 721 721 721 722 722 722
766 765 764 763 761 760 759 758 756 755 754 753 751 751 750 749 748 747 746 745 744 743 742 741 741 740 739 738 738 737 736 735 734 733 732 732 731 731 730 729 728 728 728 727 727 727 726 726 726 725 725 724 724 723 722 722 721 721 721 720 720 719 719 719 719 720 720 720 720
766 765 763 762 761 759 758 757 756 754 753 751 750 749 748 747 746 746 745 744 743 742 741 740 739 738 737 736 736 735 734 733 732 732 731 731 730 729 728 727 727 726 726 726 726 726 725 725 724 724 723 722 722 721 721 720 720 719 719 718 718 717 717 717 717 717 718 718 718
765 764 762 761 760 758 757 756 755 753 752 751 749 748 747 746 745 744 743 743 741 740 739 738 737 736 736 735 734 733 732 732 731 730 729 729 728 727 726 726 725 725 725 725 725 724 724 723 722 722 721 721 720 719 719 718 718 717 717 716 716 716 716 716 716 716 716 716 716
763 762 761 760 759 757 756 755 754 752 751 750 748 747 746 745 743 742 741 741 740 739 737 736 735 734 734 733 732 731 730 730 729 729 728 727 726 726 725 724 723 723 723 723 723 722 722 721 721 721 720 719 718 717 717 716 716 715 715 715 714 714 714 714 714 714 713 713 713
762 761 760 759 757 756 755 754 752 751 750 749 747 746 745 744 742 741 740 740 739 737 736 735 733 732 731 731 730 729 728 727 727 727 726 725 724 724 723 722 721 721 721 721 721 721 720 720 719 719 718 717 716 716 715 714 714 713 713 712 712 712 712 712 712 711 711 711 711
761 760 758 757 756 755 753 752 751 750 749 747 746 744 743 742 741 739 738 737 736 736 734 733 731 730 729 729 728 727 726 725 725 724 724 723 722 722 721 720 719 718 718 719 719 718 718 718 717 717 716 716 714 714 713 712 711 711 710 710 710 710 710 709 710 709 709 709 709
759 758 757 756 755 753 752 751 749 748 747 746 744 743 742 741 739 738 736 736 735 733 732 731 730 728 727 727 726 725 723 722 721 721 721 721 720 719 719 718 717 716 716 716 716 716 716 715 715 714 714 713 712 711 711 710 709 708 708 707 708 707 707 707 707 707 707 707 707
Wind_Speed
14 13 13 12 12 12 13 13 14 15 16 17 17 18 18 18 17 17 16 16 16 16 15 14 12 11 11 11 11 11 11 10 8 6 5 4 4 5 5 5 5 5 5 6 7 7 8 8 9 10 11 12 13 13 13 12 13 14 15 16 17 17 18 19 20 19 19 20 22
15 15 14 13 12 12 12 12 13 13 14 15 16 17 18 18 19 19 18 17 17 16 16 15 14 12 11 10 9 9 10 10 9 8 6 5 4 4 4 5 5 5 6 6 8 9 9 9 9 9 9 10 11 11 11 11 11 11 11 12 13 14 15 15 16 16 16 16 17
17 16 15 14 14 13 13 13 12 12 12 13 14 15 16 17 18 18 19 19 18 17 17 16 15 14 12 11 9 8 8 8 8 8 7 6 5 4 4 4 4 5 6 6 7 9 10 10 10 10 10 10 10 10 10 10 10 9 9 10 10 11 11 12 13 14 14 14 14
17 17 16 16 15 15 14 13 13 13 12 13 13 13 14 15 16 17 18 18 19 18 18 17 17 16 15 13 11 9 7 7 7 7 7 7 6 5 5 4 4 5 5 6 7 8 9 10 10 11 11 10 10 10 10 9 9 9 8 8 9 9 9 10 11 12 13 13 14
19 18 17 16 16 15 14 14 13 13 13 13 12 12 12 13 14 15 16 17 17 18 18 18 18 17 16 15 13 11 9 8 7 7 7 7 6 6 5 5 5 5 6 6 7 7 8 8 9 10 11 11 11 10 10 10 10 9 9 9 8 8 8 9 9 10 11 12 13
20 19 18 17 16 16 15 14 14 13 13 12 12 12 12 13 13 14 14 15 16 16 17 18 18 18 17 16 15 13 11 9 8 8 7 7 7 6 6 5 5 6 6 6 7 7 7 7 8 9 9 10 10 10 11 11 10 10 9 9 9 9 9 9 9 10 10 11 12
20 20 19 19 18 17 16 15 14 14 13 13 12 13 13 13 13 14 14 14 15 15 15 16 17 18 18 17 17 15 14 12 11 9 9 8 8 8 7 6 6 6 6 6 7 7 7 7 7 8 8 8 8 9 9 10 10 9 9 9 10 10 10 10 10 10 10 11 12
20 19 19 19 19 18 18 16 15 15 14 14 14 14 14 14 14 14 14 14 14 14 14 15 16 17 18 18 18 17 16 15 14 12 11 10 9 9 9 8 8 7 6 6 6 7 7 8 8 8 8 8 8 8 8 8 8 8 8 9 9 10 10 11 11 11 11 12 12
21 20 20 20 19 19 18 17 16 15 15 15 15 14 14 14 14 14 14 14 14 14 14 14 15 15 16 17 18 18 18 17 16 15 13 12 11 10 10 10 9 9 8 7 6 7 7 8 8 9 9 8 8 8 8 7 7 8 8 9 9 10 11 11 11 12 12 13 14
22 21 21 20 20 19 17 16 16 15 15 15 15 14 14 14 14 14 14 14 14 14 14 14 14 15 15 16 17 17 18 18 17 16 15 14 13 12 12 11 11 10 10 9 8 7 8 8 9 9 9 9 9 8 8 8 8 8 9 9 10 11 12 12 12 12 13 14 15
22 22 21 21 20 19 18 17 16 16 15 15 15 14 14 14 14 14 13 13 13 13 14 14 14 14 15 15 15 16 16 17 17 17 16 15 14 13 12 12 12 12 11 11 9 9 8 9 9 9 10 10 10 10 9 9 9 9 10 11 12 12 13 13 13 13 14 14 15
22 22 21 21 21 20 20 19 18 17 17 16 16 15 14 14 13 13 13 13 13 13 13 13 13 13 14 14 14 14 15 15 16 16 16 16 15 14 13 13 12 12 12 12 11 10 10 9 10 10 10 11 11 11 11 11 11 11 12 12 13 13 14 14 14 14 14 15 15
21 21 21 21 21 21 20 20 19 18 18 18 18 17 15 14 14 13 14 14 13 13 13 13 12 12 13 13 14 14 14 14 14 15 15 15 15 14 14 13 13 13 13 13 13 12 12 11 11 11 11 11 12 13 13 13 13 14 14 14 14 14 14 14 14 14 14 15 16
20 21 21 21 21 21 21 20 20 19 19 19 19 18 17 16 15 15 14 14 13 13 13 13 13 12 12 12 12 13 13 14 14 14 14 14 14 14 13 13 13 13 13 14 14 14 13 13 12 12 12 12 12 13 14 15 15 16 16 16 16 16 15 14 14 13 14 15 16
20 20 20 20 20 21 21 20 20 19 19 19 18 18 18 17 17 16 16 15 14 13 13 13 13 13 12 12 12 12 12 13 13 14 14 14 14 14 14 13 13 13 13 14 14 14 14 14 13 13 12 12 12 13 14 15 16 17 17 17 17 17 16 15 14 14 14 15 16
20 20 20 20 20 20 20 20 20 19 19 18 18 17 17 18 18 18 17 17 16 15 15 14 14 14 13 13 12 12 12 13 13 14 14 15 15 15 15 15 15 14 14 14 14 14 15 15 14 14 13 13 13 13 14 15 16 17 18 18 18 17 16 16 16 16 16 16 17
20 20 20 20 20 20 20 20 19 19 18 18 18 17 17 17 17 18 18 17 17 17 17 16 15 15 14 14 13 13 13 13 13 13 14 14 15 15 15 16 16 16 15 15 15 15 15 15 14 14 14 14 13 13 14 15 16 16 17 18 17 17 17 17 18 18 19 18 18
21 21 21 20 20 20 20 20 19 19 18 18 17 17 17 17 17 17 17 17 17 17 17 17 17 16 15 15 14 13 13 13 13 13 13 13 14 14 15 15 16 16 16 16 16 16 16 15 15 15 15 14 14 14 14 15 15 16 17 17 17 17 17 18 19 20 20 21 21
21 22 21 21 20 20 20 20 20 19 18 18 18 17 17 17 17 17 17 17 16 16 16 17 17 17 16 16 16 15 14 14 13 13 13 13 13 13 14 14 15 15 16 16 17 17 17 17 16 16 16 15 15 15 14 15 15 16 16 17 17 17 17 18 19 20 21 22 22
21 21 21 21 20 20 20 20 20 19 19 18 18 18 18 18 17 17 17 17 16 16 16 16 16 16 16 16 17 16 16 15 15 14 14 13 13 13 13 14 14 15 15 16 16 17 17 17 17 17 17 17 16 16 15 15 16 16 17 17 17 17 18 18 19 20 21 22 22
21 21 21 21 20 19 19 20 20 19 19 19 18 18 18 18 18 18 18 17 17 16 16 16 15 15 15 15 16 16 17 16 16 15 15 14 13 13 13 13 13 14 14 15 15 16 16 16 17 17 17 17 17 17 17 16 16 16 17 17 18 18 18 18 19 20 21 21 22
22 22 22 21 20 20 20 20 20 19 19 19 19 19 19 19 19 18 18 18 18 17 17 16 16 15 14 14 14 15 16 17 17 17 16 15 14 14 13 13 13 14 14 14 15 15 15 16 16 17 17 18 18 18 18 17 17 17 17 17 18 18 18 18 19 19 20 21 22
24 24 23 22 21 21 20 20 20 20 20 19 19 19 19 19 19 19 19 19 18 18 18 17 16 15 15 14 13 14 15 16 17 18 17 17 16 15 14 13 13 14 15 15 15 15 15 16 16 17 17 18 18 18 19 19 18 18 18 18 18 18 18 19 19 19 20 20 21
26 26 25 24 23 22 22 22 21 21 20 20 20 20 20 19 19 20 20 20 19 19 18 18 17 16 15 15 14 13 14 15 17 18 18 18 18 17 16 15 14 14 14 15 15 15 15 15 16 16 17 17 18 18 18 19 19 19 19 19 19 19 19 19 19 19 20 20 21
27 27 26 25 25 24 24 23 23 22 22 22 21 21 21 21 21 21 21 21 20 20 19 18 17 17 16 15 15 14 13 14 15 17 18 19 19 19 18 17 17 16 15 15 14 14 14 15 15 16 16 17 17 17 18 18 18 18 19 19 19 20 20 20 20 20 20 20 21
28 27 27 26 26 25 25 24 24 23 23 23 23 23 22 22 22 22 22 22 21 21 20 19 19 18 17 16 15 15 14 14 15 16 18 19 19 20 19 19 19 18 17 16 15 14 14 14 14 15 16 16 17 17 17 18 18 18 18 19 19 20 20 21 21 21 21 21 21
28 27 27 27 26 26 26 25 25 25 24 24 24 24 23 23 24 24 23 23 22 22 21 21 20 19 18 17 16 16 15 15 15 16 17 18 19 20 20 20 20 19 19 18 17 16 15 14 14 14 15 16 17 18 18 18 18 18 18 18 19 19 20 21 21 21 21 21 21
27 27 27 27 26 26 26 26 26 26 25 25 25 24 24 24 24 24 24 24 23 23 22 22 21 20 19 19 18 17 17 17 17 17 17 17 18 19 19 20 20 20 19 19 18 18 17 16 15 15 14 15 16 17 18 19 19 19 18 18 19 19 20 20 21 21 21 21 21
26 26 26 26 26 26 26 26 26 26 26 25 25 25 25 25 25 24 24 24 24 23 23 22 22 21 20 20 20 19 19 18 18 18 18 18 18 18 19 19 19 19 19 19 19 18 18 17 17 16 15 15 15 17 18 19 19 19 20 19 19 19 19 20 20 20 20 20 20
26 26 26 26 26 26 26 26 26 26 26 26 26 26 26 26 25 25 24 24 24 23 22 22 21 21 21 20 20 20 20 19 19 18 19 19 19 19 19 19 19 19 19 19 18 18 18 18 18 17 17 16 16 17 17 18 18 19 19 20 20 20 20 20 20 20 20 20 20
25 25 26 26 26 26 26 26 26 26 26 26 26 26 26 26 26 25 24 24 24 23 23 22 21 21 21 21 21 21 21 20 19 19 19 19 20 21 21 20 20 19 19 18 18 18 18 18 18 18 18 17 17 17 18 18 19 19 19 20 20 20 20 20 20 20 20 20 20
25 25 25 26 26 26 26 26 26 26 26 26 26 26 26 26 26 25 25 24 24 23 23 22 21 21 21 21 21 21 21 21 20 20 19 20 20 21 21 21 21 20 20 19 18 17 17 17 18 18 18 18 18 19 19 20 20 20 20 20 21 21 21 21 21 21 21 21 21
24 25 25 25 26 27 27 27 27 27 26 26 26 26 26 26 26 26 25 24 24 23 22 22 22 22 22 22 22 22 22 21 21 21 20 20 20 21 21 22 21 21 20 19 18 18 17 17 17 18 18 18 19 19 20 21 21 21 21 21 21 21 22 22 22 22 22 22 22
24 25 25 25 26 27 27 28 28 28 27 27 27 26 25 25 25 26 25 25 24 23 23 22 22 22 22 22 22 22 22 22 22 21 21 21 21 21 21 22 21 21 20 20 19 19 18 18 18 18 18 19 19 20 20 21 21 22 22 22 22 22 22 22 22 23 23 23 23
24 24 25 26 26 27 27 28 28 28 28 28 28 27 27 26 25 25 25 25 25 24 24 23 23 23 23 23 22 22 22 23 22 22 22 21 21 21 21 22 22 21 21 21 21 20 20 20 20 19 19 19 19 20 20 21 22 22 22 22 23 23 23 22 23 23 23 23 24
24 24 25 25 26 27 27 28 28 28 28 28 28 28 28 27 27 26 25 25 25 25 25 24 24 24 23 23 23 23 23 23 23 23 22 22 21 22 22 22 22 22 22 22 21 21 21 21 21 20 20 20 20 20 20 21 21 21 22 23 23 23 23 23 23 23 23 23 24
24 24 25 25 26 26 27 27 28 28 28 28 29 29 29 29 28 27 26 25 25 25 25 25 25 25 24 24 24 24 24 24 23 23 23 23 22 22 23 23 23 23 22 22 21 21 21 21 21 21 20 20 21 21 21 21 21 21 21 22 23 23 23 22 22 23 23 23 24
25 25 25 26 26 26 27 27 27 27 28 28 29 29 29 29 29 28 27 25 25 25 25 25 25 25 25 25 25 25 25 24 24 24 24 23 23 23 23 24 24 24 23 22 21 21 21 21 21 21 21 21 22 22 22 22 21 22 22 22 22 22 22 22 21 22 22 23 24
26 26 26 26 26 27 27 27 27 27 28 28 29 29 29 29 29 28 28 27 26 26 26 26 26 27 26 26 26 26 26 25 24 24 24 24 24 24 24 25 25 25 24 23 22 22 22 22 22 22 22 22 23 23 23 22 22 22 22 22 22 22 22 22 21 21 22 23 24
27 27 27 27 27 27 27 27 28 28 28 28 29 29 29 29 29 29 29 28 27 27 27 27 27 27 27 26 26 26 26 26 26 25 25 25 25 25 25 25 26 26 26 25 24 23 23 23 23 23 23 23 23 23 23 23 23 23 23 22 22 21 22 22 22 22 22 23 24
28 28 27 27 27 27 27 28 28 29 29 29 29 29 29 29 29 29 29 28 28 28 27 27 28 28 28 27 27 27 27 27 27 27 27 26 26 26 26 26 27 27 27 27 26 25 24 23 23 23 23 23 24 24 23 23 23 23 23 23 22 22 21 22 22 22 22 23 24
Wind_Direction
10 7 4 2 359 356 353 351 350 349 348 347 346 345 343 342 341 340 340 341 340 339 339 340 342 342 344 347 351 353 353 352 348 340 323 300 281 271 265 260 254 249 243 237 233 230 225 218 209 204 200 198 195 192 190 188 187 187 186 185 184 183 182 182 182 183 183 185 188
10 8 6 5 2 358 355 352 351 349 346 344 342 340 339 339 338 338 338 339 338 338 337 338 339 339 339 342 344 347 348 348 346 342 333 320 299 281 269 261 254 249 243 239 235 232 229 226 221 215 211 207 204 200 197 195 192 191 191 192 192 192 191 190 190 189 188 186 186
12 10 8 6 4 1 358 353 350 347 343 340 337 336 335 336 336 336 337 338 339 339 338 337 337 337 337 337 338 340 342 343 342 338 332 324 315 302 287 273 263 254 248 243 239 236 233 231 229 227 224 222 217 213 208 205 202 197 195 194 197 199 201 202 203 203 202 199 197
14 13 10 8 5 3 359 355 350 346 342 338 335 333 333 333 334 335 336 338 338 338 337 336 335 334 334 333 333 334 334 336 336 333 328 323 316 307 297 285 275 265 258 252 248 244 240 238 236 233 231 230 228 225 223 220 216 211 206 202 201 200 201 203 207 210 211 211 210
15 14 13 10 7 4 1 358 354 350 345 341 338 336 334 334 334 335 335 336 335 335 334 334 333 332 332 331 330 330 330 329 329 328 325 321 316 307 296 286 276 269 265 260 257 253 250 247 244 240 237 234 231 230 230 228 226 223 221 219 215 210 206 203 205 208 211 213 215
13 13 13 13 10 7 4 1 358 355 351 347 344 342 339 336 335 334 333 331 330 330 330 330 331 331 331 331 330 329 328 326 326 324 321 318 314 309 300 288 277 271 267 264 263 261 259 255 252 248 245 242 237 233 231 229 228 227 227 228 228 225 220 216 213 211 211 212 214
13 12 13 13 12 10 8 7 4 1 359 356 352 348 345 341 338 335 332 329 327 326 327 328 329 329 329 329 329 328 327 326 324 322 319 316 312 308 303 297 287 277 269 264 263 262 261 259 255 253 252 250 246 243 238 233 227 226 228 231 233 233 232 231 229 226 224 222 221
16 15 15 15 14 13 12 11 10 9 7 5 1 357 353 348 344 341 337 333 331 329 328 328 328 327 327 327 327 327 326 325 323 321 318 315 311 306 302 299 294 286 276 265 260 257 256 256 254 253 254 254 254 254 251 246 237 233 231 234 236 236 235 236 237 237 237 236 234
17 18 18 19 18 17 16 15 14 13 13 11 8 4 0 357 354 350 346 343 339 335 332 330 328 326 325 324 324 324 324 323 322 320 318 314 311 307 302 298 294 289 282 271 261 254 251 250 250 250 252 254 255 257 258 257 253 248 242 237 235 235 235 235 236 238 239 240 240
17 18 19 20 20 20 20 19 18 17 14 13 10 8 6 3 0 356 351 346 342 339 337 334 331 328 325 323 321 321 321 321 320 319 317 315 311 307 303 299 295 291 287 280 270 260 252 248 247 248 249 251 252 252 253 254 255 254 249 242 235 231 230 230 230 232 234 236 237
16 17 18 19 20 21 21 21 20 17 14 12 10 9 8 6 2 357 351 347 345 343 340 338 335 332 329 325 322 320 319 318 318 317 316 314 312 308 304 301 297 293 290 286 280 271 261 253 249 246 247 248 248 248 248 247 247 246 246 242 237 233 230 228 227 227 228 230 233
14 15 17 18 18 19 20 20 19 17 14 11 10 9 9 6 1 357 354 353 352 348 344 340 337 334 332 330 327 323 319 317 315 314 314 313 312 309 306 302 299 296 293 290 287 280 271 262 256 251 248 246 246 246 245 243 241 240 240 238 236 235 234 232 231 229 229 230 231
13 14 15 16 16 16 16 17 16 15 13 11 11 10 8 5 1 358 357 357 355 351 347 343 339 335 332 330 328 325 322 319 315 312 310 309 309 308 306 304 300 297 295 293 292 288 280 273 267 261 256 252 250 248 246 243 241 239 237 236 235 235 235 235 235 235 235 234 234
12 13 14 14 14 14 13 13 12 11 11 10 10 9 7 4 1 360 358 357 354 351 347 345 343 339 334 328 324 322 320 318 315 312 309 306 305 303 303 302 300 297 295 293 293 291 287 282 278 273 269 263 259 255 251 248 244 242 240 238 237 236 236 236 236 237 237 237 237
8 10 11 12 12 12 11 10 8 7 7 7 7 6 5 3 1 360 358 356 353 351 348 346 343 340 336 331 324 319 314 312 311 310 307 304 301 300 299 297 296 295 293 291 291 291 290 288 286 283 279 274 269 263 258 253 250 247 244 241 240 239 237 237 237 237 237 237 238
4 6 8 9 9 9 9 7 6 4 2 2 2 2 1 0 0 360 358 356 353 351 349 346 343 340 337 333 329 323 317 313 310 308 306 303 300 299 297 294 292 290 288 287 286 287 288 289 288 287 284 281 276 270 263 258 254 251 249 246 245 243 242 241 239 237 237 237 238
0 1 3 5 5 5 5 5 4 2 360 358 358 357 357 357 358 359 359 357 355 352 349 347 344 341 337 334 331 327 323 319 315 311 307 304 301 299 297 294 291 289 286 283 281 280 282 284 285 286 285 283 279 273 267 261 257 255 253 252 250 249 248 246 243 240 238 237 237
357 358 359 360 0 0 1 1 1 0 358 356 355 353 353 353 354 356 358 358 356 353 349 347 345 343 339 336 333 329 325 321 316 312 308 304 302 299 297 295 292 290 287 284 281 278 276 276 277 279 280 280 278 274 269 264 261 258 257 255 254 253 251 249 245 242 240 238 237
354 355 355 356 355 355 355 357 358 357 356 355 353 351 349 349 350 352 354 356 356 354 350 348 346 344 342 338 335 332 328 322 317 312 308 305 302 299 297 294 292 290 287 285 283 280 277 275 273 273 274 274 273 271 268 265 263 262 260 258 256 254 251 249 246 244 242 240 239
350 351 351 352 351 351 351 352 353 353 353 352 351 349 347 347 347 348 349 351 352 353 351 350 348 346 343 339 335 332 328 325 320 315 311 307 302 298 295 294 292 289 287 285 283 282 280 278 275 273 271 270 269 268 266 264 263 263 262 261 258 256 252 249 247 245 244 243 241
346 346 347 347 347 347 347 347 348 349 349 349 348 346 345 345 345 345 345 345 347 348 349 350 350 348 344 340 334 329 326 324 321 317 314 310 304 298 294 291 289 288 286 284 282 281 280 279 277 275 273 271 269 268 266 264 262 261 261 260 260 258 255 252 248 245 244 243 242
342 342 342 343 343 343 343 344 344 345 345 345 345 344 343 343 343 342 342 342 342 342 344 347 349 349 347 342 334 328 323 321 318 316 315 312 308 304 298 291 287 284 282 280 279 278 277 276 275 274 273 272 270 268 267 266 264 262 260 259 259 258 257 254 250 247 245 244 243
340 339 339 339 340 340 340 341 341 342 342 342 342 341 341 340 340 340 339 338 337 337 339 342 346 349 349 346 339 330 323 318 315 313 313 312 311 310 306 299 291 284 280 277 276 275 274 273 273 272 271 271 269 268 267 266 264 263 261 260 259 258 257 255 253 251 248 246 244
338 338 338 338 338 337 337 338 339 339 339 339 339 339 339 338 338 337 336 335 334 334 334 336 341 345 348 347 343 335 326 317 313 311 310 309 309 309 308 305 300 294 289 285 281 277 274 271 271 270 270 269 268 268 266 264 263 262 261 260 259 258 257 256 255 254 251 249 247
336 336 336 336 336 335 335 336 336 336 336 336 336 336 336 336 335 335 334 333 332 332 331 332 335 340 343 343 342 337 329 320 314 310 308 307 306 306 305 303 302 301 299 296 292 286 279 273 269 268 268 268 268 268 267 265 263 262 261 260 259 258 258 257 256 255 253 252 250
334 334 335 334 333 333 333 333 333 333 333 333 334 334 334 334 333 333 333 332 332 331 330 330 331 334 336 337 336 334 330 323 316 311 307 305 304 303 301 300 299 300 300 300 298 295 289 281 274 268 265 265 266 266 267 266 266 265 263 261 260 259 258 257 256 255 254 253 252
332 332 332 331 331 330 330 330 331 331 331 331 331 331 330 330 330 331 331 331 331 330 330 329 329 329 329 330 330 329 327 323 317 311 306 303 301 299 298 297 296 297 298 299 299 298 295 291 285 276 269 264 262 263 264 265 266 266 265 264 263 261 259 258 257 256 255 254 253
329 329 329 328 328 327 327 328 328 328 328 328 328 327 327 327 327 328 328 329 329 329 329 328 327 326 324 324 323 324 323 321 317 312 307 302 298 295 294 293 293 294 295 297 297 297 296 294 292 287 279 270 264 261 261 262 263 264 264 264 263 263 262 260 259 258 256 255 254
326 326 325 325 324 324 324 325 325 326 326 325 325 324 324 324 324 324 325 326 326 326 326 325 324 322 320 318 318 319 319 318 315 312 308 303 299 295 292 291 291 291 293 294 294 294 293 292 291 290 287 280 271 265 261 260 261 261 262 262 262 262 262 262 262 260 259 257 255
323 323 323 322 321 321 321 322 322 323 323 322 322 322 321 321 321 322 322 322 322 322 321 320 319 317 315 314 313 313 313 312 312 310 306 302 299 296 293 292 290 290 290 290 290 289 288 287 287 287 287 284 278 270 264 261 259 260 260 261 261 260 261 261 262 261 260 259 257
321 321 320 320 319 319 319 319 320 320 320 320 319 319 319 319 318 318 318 318 318 317 317 316 314 312 310 309 309 307 307 307 307 305 303 300 298 297 295 294 292 291 290 289 288 286 284 282 281 282 282 282 279 274 269 264 260 259 259 259 260 260 260 260 260 261 260 259 258
319 319 318 318 317 317 317 317 318 318 317 317 317 316 316 316 315 315 315 315 314 314 313 312 310 308 307 306 305 304 303 302 301 300 298 297 296 296 295 295 294 293 293 292 290 287 283 280 278 277 277 276 275 273 270 267 262 260 259 259 259 260 260 260 260 259 259 259 258
317 317 317 316 315 315 315 316 316 316 315 315 314 314 313 313 312 313 313 312 312 311 309 308 306 304 303 302 301 300 299 297 296 295 294 293 292 292 293 293 293 294 294 294 294 291 287 283 279 276 274 273 272 270 268 266 263 260 259 259 259 260 260 260 259 259 259 258 258
315 315 314 314 313 313 314 314 314 314 314 313 312 312 311 310 310 310 310 310 309 308 306 303 302 300 299 297 296 295 294 293 292 291 289 289 288 288 288 287 288 289 291 292 293 292 290 287 283 280 276 273 270 267 265 263 261 260 259 259 259 260 259 259 259 259 259 259 258
312 312 312 311 311 311 311 312 312 312 312 312 311 310 310 309 308 308 307 307 306 305 303 301 299 298 296 295 293 292 291 290 289 288 287 286 285 285 284 283 283 283 285 287 288 289 289 288 286 284 281 276 270 266 263 261 259 259 259 259 260 260 259 259 259 259 258 258 257
310 309 309 308 308 308 308 309 309 309 309 309 309 309 309 308 307 306 306 305 304 302 300 299 298 297 295 293 292 290 289 287 287 286 285 284 284 283 282 281 280 280 281 282 284 285 286 286 285 285 283 279 273 268 264 261 259 258 259 259 260 260 260 259 259 258 258 257 255
307 307 306 305 305 305 305 305 305 305 305 305 306 306 306 306 306 305 305 305 303 300 299 298 297 295 293 292 291 289 288 287 286 285 284 283 282 281 281 281 280 279 279 280 280 281 281 282 282 282 282 280 276 271 267 263 260 259 259 259 260 260 260 260 259 258 257 255 254
305 304 304 303 302 302 302 301 301 301 301 301 302 302 303 303 303 304 303 303 301 299 297 296 294 293 292 292 291 289 288 286 285 284 283 282 281 281 281 281 280 279 278 278 277 277 277 277 278 278 278 278 276 272 268 264 260 259 260 260 260 260 260 259 259 258 257 255 254
303 302 301 300 300 299 299 298 297 297 297 298 298 299 299 300 300 300 301 300 298 297 296 294 293 292 291 291 290 289 288 286 284 283 282 281 281 280 280 280 279 278 278 277 276 274 274 274 274 274 274 273 273 271 268 264 260 259 259 260 260 260 260 259 258 258 257 256 254
301 300 299 298 297 297 296 296 295 295 295 295 295 295 296 296 296 297 297 297 296 295 294 293 292 291 291 290 289 288 287 286 284 283 282 281 281 281 280 279 278 278 277 276 275 274 272 271 271 271 270 270 269 268 266 263 261 259 258 258 258 259 260 260 259 258 257 257 256
299 298 297 296 296 295 294 294 293 293 293 293 293 293 293 293 293 294 294 294 294 293 293 292 292 291 291 290 289 287 286 285 284 283 282 281 281 281 280 279 278 278 277 276 275 273 271 270 268 268 267 266 265 264 263 261 259 257 256 256 256 256 258 259 259 258 257 256 256